Location: Newark
(30.0000°S, 28.7500°E)
Time: 15:21:03
(UTC+00:00)

N. Korean satellite - Visible Passes

Search period start: 01 October 2020 00:00
Search period end: 11 October 2020 00:00
Orbit: 454 x 503 km, 97.2° (Epoch: 30 September)

Date Brightness Start Highest point End Pass type
(mag) Time Alt. Az. Time Alt. Az. Time Alt. Az.
01 Oct 6.4 03:02:44 10° N 03:06:10 78° W 03:09:39 10° SSW visible
02 Oct 8.1 02:36:58 10° NE 02:40:11 38° ESE 02:43:26 10° S visible
03 Oct 9.7 02:12:03 10° ENE 02:14:18 16° ESE 02:16:33 10° SSE visible
05 Oct 6.8 02:51:53 10° NNE 02:55:17 69° ESE 02:58:45 10° S visible
06 Oct 8.9 02:26:24 10° NE 02:29:19 26° ESE 02:32:18 10° SSE visible
07 Oct 10.2 02:02:09 10° E 02:03:27 12° ESE 02:04:46 10° SE visible
07 Oct 10.7 16:40:23 10° WSW 16:41:05 10° WSW 16:41:46 10° W visible
08 Oct 6.4 03:06:58 10° N 03:10:23 65° W 03:13:50 10° SSW visible
09 Oct 7.7 02:41:03 10° NNE 02:44:21 45° ESE 02:47:42 10° S visible
10 Oct 9.5 02:15:55 10° ENE 02:18:25 19° ESE 02:20:57 10° SSE visible
